DELPHINI (44030 NORAD) Tracking and Keplerian Element Data

This shows tracking and keplerian element data for the satellite.

Feedback or suggestion? Click here.




ElementValue
Catalog44030
NameDELPHINI
Epoch Orbit2540
Epoch Day194.44925994
Epoch Year2019
RAAN227.1574
Inclination51.637
Eccentricity0.0003945
Argument of Perigee242.0802
Mean Anonmoly117.9791
Mean Motion15.56899329
Decay Rate5.85E-05
L11 44030U 98067PW 19194.44925994 .00005850 00000-0 86489-4 0 9998
L22 44030 51.6370 227.1574 0003945 242.0802 117.9791 15.56899329 25405

Live tracking and technical data element details for DELPHINI (NORAD 44030). DELPHINI can be tracked NOW for your location showing map with azimuth and elevation plus other details from your city location.

Track the satellite on the map from your city or location and see movement details for azimuth, elevation, latitude, longitude, range, height, and movement on the map or in text.







IsCatalogInMostPopularTable: catalog: 44030, numindb: 108
Update: records affected: 1



GetName: 44030 DELPHINI

Hit Count: updated at: Wed, 17 Jul 2019 08:52:24 GMT